| time (UTC) | temp C | wind direction | speed KPH | gust KPH | rain 1hr cm | rain 24hr cm | rain mn cm | humidity % | barometer mb |
| 20260506004740 | 21 | 118 | 3.2 | 6.4 | 0.00 | 0.10 | 0.10 | 38 | 1181.5 |
| 20260506004238 | 20 | 109 | 11.3 | 12.9 | 0.00 | 0.10 | 0.10 | 39 | 1181.6 |
| 20260506003734 | 21 | 196 | 8.0 | 8.0 | 0.00 | 0.10 | 0.10 | 39 | 1181.5 |
| 20260506003231 | 21 | 132 | 6.4 | 8.0 | 0.00 | 0.10 | 0.10 | 39 | 1181.5 |
| 20260506002726 | 20 | 132 | 4.8 | 9.7 | 0.00 | 0.10 | 0.10 | 39 | 1181.6 |
| 20260506002223 | 20 | 164 | 9.7 | 14.5 | 0.00 | 0.10 | 0.10 | 39 | 1181.6 |
| 20260506001719 | 21 | 146 | 6.4 | 9.7 | 0.00 | 0.10 | 0.10 | 38 | 1181.6 |
| 20260506001217 | 20 | 175 | 8.0 | 9.7 | 0.00 | 0.10 | 0.10 | 40 | 1181.9 |
| 20260506000713 | 20 | 48 | 6.4 | 11.3 | 0.00 | 0.10 | 0.10 | 39 | 1181.6 |
| 20260506000212 | 20 | 131 | 11.3 | 12.9 | 0.00 | 0.10 | 0.10 | 41 | 1181.5 |
| 20260505235708 | 20 | 62 | 11.3 | 14.5 | 0.00 | 0.10 | 0.10 | 39 | 1181.5 |
| 20260505235206 | 20 | 174 | 9.7 | 9.7 | 0.00 | 0.10 | 0.10 | 40 | 1181.9 |
| 20260505234702 | 20 | 153 | 6.4 | 6.4 | 0.00 | 0.10 | 0.10 | 39 | 1181.5 |
| 20260505234200 | 20 | 176 | 4.8 | 8.0 | 0.00 | 0.10 | 0.10 | 40 | 1181.9 |
| 20260505233656 | 20 | 202 | 0.0 | 9.7 | 0.00 | 0.10 | 0.10 | 39 | 1181.8 |
| 20260505233154 | 20 | 209 | 6.4 | 14.5 | 0.00 | 0.10 | 0.10 | 41 | 1181.8 |
| 20260505232651 | 20 | 147 | 1.6 | 12.9 | 0.00 | 0.10 | 0.10 | 40 | 1181.9 |
| 20260505232149 | 20 | 187 | 8.0 | 11.3 | 0.00 | 0.10 | 0.10 | 41 | 1181.6 |
| 20260505231645 | 20 | 288 | 4.8 | 9.7 | 0.00 | 0.10 | 0.10 | 41 | 1181.9 |
| 20260505231145 | 20 | 154 | 6.4 | 14.5 | 0.00 | 0.10 | 0.10 | 41 | 1181.8 |
| 20260505230642 | 20 | 171 | 6.4 | 8.0 | 0.00 | 0.10 | 0.10 | 41 | 1181.8 |
| 20260505230138 | 20 | 180 | 6.4 | 9.7 | 0.00 | 0.10 | 0.10 | 42 | 1182.0 |
| 20260505225634 | 20 | 73 | 9.7 | 9.7 | 0.00 | 0.10 | 0.10 | 43 | 1182.0 |
| 20260505225131 | 20 | 102 | 11.3 | 14.5 | 0.00 | 0.10 | 0.10 | 43 | 1182.1 |
| 20260505224627 | 19 | 248 | 9.7 | 11.3 | 0.00 | 0.10 | 0.10 | 43 | 1182.0 |
| 20260505224125 | 20 | 193 | 8.0 | 14.5 | 0.00 | 0.10 | 0.10 | 44 | 1182.2 |
| 20260505223622 | 20 | 171 | 4.8 | 16.1 | 0.00 | 0.10 | 0.10 | 43 | 1182.2 |
| 20260505223118 | 20 | 207 | 6.4 | 16.1 | 0.00 | 0.10 | 0.10 | 43 | 1182.3 |
| 20260505222615 | 19 | 96 | 4.8 | 9.7 | 0.00 | 0.10 | 0.10 | 45 | 1182.2 |
| 20260505222111 | 19 | 56 | 8.0 | 12.9 | 0.00 | 0.10 | 0.10 | 43 | 1182.4 |
| 20260505221608 | 19 | 165 | 6.4 | 9.7 | 0.00 | 0.10 | 0.10 | 47 | 1182.6 |
| 20260505221104 | 19 | 72 | 8.0 | 9.7 | 0.00 | 0.10 | 0.10 | 43 | 1182.4 |
| 20260505220602 | 18 | 55 | 6.4 | 8.0 | 0.00 | 0.10 | 0.10 | 47 | 1182.7 |
| 20260505220100 | 18 | 83 | 3.2 | 9.7 | 0.00 | 0.10 | 0.10 | 45 | 1182.6 |
| 20260505215557 | 18 | 160 | 6.4 | 9.7 | 0.00 | 0.10 | 0.10 | 45 | 1182.7 |
| 20260505215055 | 18 | 258 | 1.6 | 6.4 | 0.00 | 0.10 | 0.10 | 46 | 1182.7 |
| 20260505214553 | 18 | 169 | 4.8 | 6.4 | 0.00 | 0.10 | 0.10 | 46 | 1182.6 |
| 20260505214050 | 18 | 142 | 3.2 | 9.7 | 0.00 | 0.10 | 0.10 | 45 | 1182.7 |
| 20260505213548 | 18 | 179 | 3.2 | 6.4 | 0.00 | 0.10 | 0.10 | 47 | 1182.7 |
| 20260505213043 | 18 | 61 | 4.8 | 9.7 | 0.00 | 0.10 | 0.10 | 46 | 1182.7 |
| 20260505212540 | 17 | 200 | 4.8 | 9.7 | 0.00 | 0.10 | 0.10 | 49 | 1182.7 |
| 20260505212038 | 17 | 179 | 4.8 | 11.3 | 0.00 | 0.10 | 0.10 | 49 | 1182.8 |
| 20260505211534 | 17 | 156 | 9.7 | 14.5 | 0.00 | 0.10 | 0.10 | 49 | 1183.0 |
| 20260505211031 | 18 | 127 | 9.7 | 11.3 | 0.00 | 0.10 | 0.10 | 50 | 1183.0 |
| 20260505210528 | 17 | 203 | 1.6 | 6.4 | 0.00 | 0.10 | 0.10 | 49 | 1183.2 |
| 20260505210025 | 17 | 150 | 3.2 | 9.7 | 0.00 | 0.10 | 0.10 | 53 | 1183.1 |
| 20260505205523 | 17 | 129 | 4.8 | 9.7 | 0.00 | 0.10 | 0.10 | 51 | 1183.2 |
| 20260505205020 | 16 | 117 | 11.3 | 14.5 | 0.00 | 0.10 | 0.10 | 54 | 1183.3 |
| 20260505204518 | 16 | 164 | 6.4 | 11.3 | 0.00 | 0.10 | 0.10 | 55 | 1183.3 |
| 20260505204015 | 16 | 57 | 0.0 | 9.7 | 0.00 | 0.10 | 0.10 | 53 | 1183.2 |
| 20260505203511 | 16 | 62 | 6.4 | 9.7 | 0.00 | 0.10 | 0.10 | 58 | 1183.5 |
| 20260505203008 | 16 | 151 | 9.7 | 14.5 | 0.00 | 0.10 | 0.10 | 56 | 1183.2 |
| 20260505202504 | 16 | 110 | 6.4 | 11.3 | 0.00 | 0.10 | 0.10 | 58 | 1183.2 |
| 20260505202000 | 16 | 133 | 4.8 | 11.3 | 0.00 | 0.10 | 0.10 | 57 | 1183.5 |
| 20260505201457 | 16 | 127 | 6.4 | 11.3 | 0.00 | 0.10 | 0.10 | 63 | 1183.2 |
| 20260505200955 | 15 | 180 | 3.2 | 9.7 | 0.00 | 0.10 | 0.10 | 59 | 1183.6 |
| 20260505200453 | 15 | 174 | 8.0 | 12.9 | 0.00 | 0.10 | 0.10 | 63 | 1183.5 |
| 20260505195948 | 15 | 161 | 3.2 | 11.3 | 0.00 | 0.10 | 0.10 | 60 | 1183.5 |
| 20260505195445 | 15 | 136 | 1.6 | 11.3 | 0.00 | 0.10 | 0.10 | 58 | 1183.5 |
| 20260505194943 | 15 | 99 | 8.0 | 8.0 | 0.00 | 0.10 | 0.10 | 58 | 1183.7 |
| 20260505194440 | 14 | 158 | 6.4 | 11.3 | 0.00 | 0.10 | 0.10 | 64 | 1183.8 |
| 20260505193940 | 14 | 126 | 3.2 | 9.7 | 0.00 | 0.10 | 0.10 | 64 | 1183.6 |
| 20260505193438 | 14 | 179 | 8.0 | 9.7 | 0.00 | 0.10 | 0.10 | 65 | 1183.6 |
| 20260505192935 | 13 | 106 | 1.6 | 4.8 | 0.00 | 0.10 | 0.10 | 66 | 1183.6 |
| 20260505192433 | 13 | 185 | 4.8 | 11.3 | 0.00 | 0.10 | 0.10 | 68 | 1183.6 |
| 20260505191931 | 13 | 190 | 8.0 | 9.7 | 0.00 | 0.10 | 0.10 | 68 | 1183.6 |
| 20260505191430 | 13 | 135 | 6.4 | 14.5 | 0.00 | 0.10 | 0.10 | 67 | 1183.5 |
| 20260505190926 | 13 | 130 | 9.7 | 12.9 | 0.00 | 0.10 | 0.10 | 68 | 1183.3 |
| 20260505190421 | 13 | 81 | 6.4 | 12.9 | 0.00 | 0.10 | 0.10 | 67 | 1183.7 |
| 20260505185916 | 13 | 77 | 4.8 | 9.7 | 0.00 | 0.10 | 0.10 | 69 | 1183.5 |
| 20260505185414 | 13 | 138 | 4.8 | 11.3 | 0.00 | 0.10 | 0.10 | 67 | 1183.5 |
| 20260505184910 | 13 | 159 | 4.8 | 14.5 | 0.00 | 0.10 | 0.10 | 65 | 1183.6 |
| 20260505184407 | 13 | 46 | 3.2 | 6.4 | 0.00 | 0.10 | 0.10 | 70 | 1183.6 |
| 20260505183904 | 12 | 101 | 3.2 | 6.4 | 0.00 | 0.10 | 0.10 | 69 | 1183.5 |
| 20260505183401 | 12 | 118 | 9.7 | 9.7 | 0.00 | 0.10 | 0.10 | 69 | 1183.5 |
| 20260505182857 | 12 | 103 | 4.8 | 8.0 | 0.00 | 0.10 | 0.10 | 69 | 1183.5 |
| 20260505182355 | 12 | 197 | 8.0 | 9.7 | 0.00 | 0.10 | 0.10 | 70 | 1183.5 |
| 20260505181851 | 11 | 110 | 3.2 | 11.3 | 0.00 | 0.10 | 0.10 | 72 | 1183.3 |
| 20260505181348 | 11 | 222 | 6.4 | 11.3 | 0.00 | 0.10 | 0.10 | 73 | 1183.5 |
| 20260505180845 | 11 | 161 | 4.8 | 8.0 | 0.00 | 0.10 | 0.10 | 72 | 1183.5 |
| 20260505180341 | 11 | 176 | 4.8 | 9.7 | 0.00 | 0.10 | 0.10 | 73 | 1183.5 |
| 20260505175838 | 11 | 232 | 4.8 | 9.7 | 0.00 | 0.10 | 0.10 | 75 | 1183.5 |
| 20260505175334 | 11 | 216 | 3.2 | 11.3 | 0.00 | 0.10 | 0.10 | 76 | 1183.2 |
| 20260505174831 | 11 | 237 | 6.4 | 8.0 | 0.00 | 0.10 | 0.10 | 75 | 1183.3 |
| 20260505174329 | 11 | 244 | 9.7 | 9.7 | 0.00 | 0.10 | 0.10 | 75 | 1183.3 |
| 20260505173824 | 10 | 208 | 6.4 | 11.3 | 0.00 | 0.10 | 0.10 | 77 | 1183.3 |
| 20260505173320 | 10 | 227 | 6.4 | 9.7 | 0.00 | 0.10 | 0.10 | 77 | 1183.0 |
| 20260505172818 | 10 | 209 | 9.7 | 9.7 | 0.00 | 0.10 | 0.10 | 76 | 1183.1 |
| 20260505172316 | 10 | 217 | 4.8 | 6.4 | 0.00 | 0.10 | 0.10 | 78 | 1182.9 |
| 20260505171815 | 10 | 227 | 9.7 | 11.3 | 0.00 | 0.10 | 0.10 | 77 | 1183.0 |
| 20260505171313 | 10 | 195 | 8.0 | 11.3 | 0.00 | 0.10 | 0.10 | 78 | 1183.0 |
| 20260505170808 | 10 | 249 | 8.0 | 17.7 | 0.00 | 0.10 | 0.10 | 77 | 1182.9 |
| 20260505170306 | 10 | 222 | 9.7 | 16.1 | 0.00 | 0.10 | 0.10 | 78 | 1182.7 |
| 20260505165801 | 10 | 234 | 8.0 | 14.5 | 0.00 | 0.10 | 0.10 | 79 | 1182.7 |
| 20260505165257 | 10 | 222 | 11.3 | 17.7 | 0.00 | 0.10 | 0.10 | 79 | 1182.8 |
| 20260505164753 | 10 | 223 | 9.7 | 19.3 | 0.00 | 0.10 | 0.10 | 79 | 1182.8 |
| 20260505164250 | 10 | 222 | 6.4 | 16.1 | 0.00 | 0.10 | 0.10 | 80 | 1182.4 |
| 20260505163748 | 10 | 193 | 4.8 | 14.5 | 0.00 | 0.10 | 0.10 | 81 | 1182.7 |
| 20260505163247 | 10 | 209 | 6.4 | 14.5 | 0.00 | 0.10 | 0.10 | 80 | 1182.4 |
| 20260505162744 | 10 | 225 | 8.0 | 16.1 | 0.00 | 0.10 | 0.10 | 80 | 1182.4 |
| 20260505162241 | 10 | 189 | 3.2 | 9.7 | 0.00 | 0.10 | 0.10 | 81 | 1182.4 |
| 20260505161737 | 10 | 207 | 4.8 | 11.3 | 0.00 | 0.10 | 0.10 | 80 | 1182.4 |
| 20260505161235 | 10 | 180 | 4.8 | 11.3 | 0.00 | 0.10 | 0.10 | 81 | 1182.3 |
| 20260505160732 | 10 | 190 | 8.0 | 9.7 | 0.00 | 0.10 | 0.10 | 77 | 1182.6 |
| 20260505160230 | 10 | 189 | 8.0 | 8.0 | 0.00 | 0.10 | 0.10 | 78 | 1182.4 |
| 20260505153209 | 10 | 265 | 6.4 | 8.0 | 0.00 | 0.10 | 0.10 | 82 | 1182.0 |
| 20260505152706 | 10 | 273 | 4.8 | 6.4 | 0.00 | 0.10 | 0.10 | 83 | 1182.1 |
| 20260505152202 | 10 | 310 | 1.6 | 9.7 | 0.00 | 0.10 | 0.10 | 84 | 1182.0 |
| 20260505151657 | 10 | 199 | 1.6 | 6.4 | 0.00 | 0.10 | 0.10 | 82 | 1182.0 |
| 20260505151155 | 10 | 308 | 1.6 | 4.8 | 0.00 | 0.10 | 0.10 | 84 | 1182.0 |
| 20260505150651 | 9 | 230 | 0.0 | 3.2 | 0.00 | 0.10 | 0.10 | 84 | 1182.0 |
| 20260505150148 | 9 | 213 | 1.6 | 4.8 | 0.00 | 0.10 | 0.10 | 84 | 1182.0 |
| 20260505140616 | 8 | 277 | 3.2 | 4.8 | 0.00 | 0.10 | 0.10 | 88 | 1181.5 |
| 20260505140114 | 8 | 237 | 0.0 | 1.6 | 0.00 | 0.10 | 0.10 | 88 | 1181.3 |
| 20260505125030 | 8 | 166 | 3.2 | 6.4 | 0.00 | 0.10 | 0.10 | 86 | 1180.2 |
| 20260505124527 | 7 | 137 | 4.8 | 9.7 | 0.00 | 0.10 | 0.10 | 86 | 1180.4 |
| 20260505124023 | 8 | 150 | 3.2 | 6.4 | 0.00 | 0.10 | 0.10 | 86 | 1180.1 |
| 20260505123520 | 7 | 216 | 6.4 | 12.9 | 0.00 | 0.10 | 0.10 | 86 | 1180.3 |
| 20260505123015 | 7 | 181 | 4.8 | 6.4 | 0.00 | 0.10 | 0.10 | 87 | 1180.1 |
| 20260505122513 | 7 | 180 | 3.2 | 6.4 | 0.00 | 0.10 | 0.10 | 87 | 1180.1 |
| 20260505122010 | 7 | 271 | 4.8 | 4.8 | 0.00 | 0.10 | 0.10 | 87 | 1180.2 |
| 20260505121506 | 7 | 263 | 4.8 | 6.4 | 0.00 | 0.10 | 0.10 | 87 | 1180.2 |
| 20260505121003 | 7 | 238 | 6.4 | 6.4 | 0.00 | 0.10 | 0.10 | 88 | 1180.1 |
| 20260505120459 | 7 | 219 | 3.2 | 8.0 | 0.00 | 0.10 | 0.10 | 88 | 1179.8 |
| 20260505115958 | 7 | 212 | 8.0 | 8.0 | 0.00 | 0.10 | 0.10 | 88 | 1180.1 |
| 20260505115454 | 7 | 248 | 16.1 | 16.1 | 0.00 | 0.10 | 0.10 | 87 | 1179.8 |
| 20260505114953 | 7 | 173 | 6.4 | 9.7 | 0.00 | 0.10 | 0.10 | 88 | 1180.2 |
| 20260505114448 | 7 | 196 | 3.2 | 9.7 | 0.00 | 0.10 | 0.10 | 88 | 1180.2 |
| 20260505113946 | 7 | 235 | 6.4 | 8.0 | 0.00 | 0.10 | 0.10 | 88 | 1180.0 |
| 20260505113442 | 7 | 157 | 4.8 | 4.8 | 0.00 | 0.10 | 0.10 | 87 | 1180.2 |
| 20260505112937 | 7 | 210 | 4.8 | 8.0 | 0.00 | 0.10 | 0.10 | 87 | 1180.1 |
| 20260505112435 | 7 | 183 | 4.8 | 9.7 | 0.00 | 0.10 | 0.10 | 88 | 1180.2 |
| 20260505111932 | 7 | 176 | 8.0 | 8.0 | 0.00 | 0.10 | 0.10 | 88 | 1180.3 |
| 20260505111426 | 7 | 181 | 6.4 | 12.9 | 0.00 | 0.10 | 0.10 | 89 | 1180.1 |
| 20260505110923 | 7 | 214 | 8.0 | 11.3 | 0.00 | 0.10 | 0.10 | 89 | 1180.1 |
| 20260505110420 | 7 | 231 | 4.8 | 9.7 | 0.00 | 0.10 | 0.10 | 90 | 1180.1 |
| 20260505101850 | 7 | 182 | 8.0 | 11.3 | 0.00 | 0.10 | 0.10 | 90 | 1180.3 |
| 20260505101345 | 7 | 129 | 0.0 | 6.4 | 0.00 | 0.10 | 0.10 | 90 | 1180.4 |
| 20260505100841 | 7 | 199 | 3.2 | 8.0 | 0.00 | 0.10 | 0.10 | 90 | 1180.3 |
| 20260505100338 | 7 | 192 | 4.8 | 12.9 | 0.00 | 0.10 | 0.10 | 90 | 1180.4 |
| 20260505095834 | 7 | 231 | 4.8 | 8.0 | 0.00 | 0.10 | 0.10 | 91 | 1180.5 |
| 20260505095332 | 7 | 194 | 6.4 | 9.7 | 0.00 | 0.10 | 0.10 | 91 | 1180.5 |
| 20260505094827 | 7 | 236 | 4.8 | 11.3 | 0.00 | 0.10 | 0.10 | 91 | 1180.5 |
| 20260505094324 | 7 | 203 | 6.4 | 16.1 | 0.00 | 0.10 | 0.10 | 92 | 1180.5 |
| 20260505093820 | 7 | 215 | 14.5 | 14.5 | 0.00 | 0.10 | 0.10 | 92 | 1180.5 |
| 20260505093318 | 7 | 235 | 9.7 | 12.9 | 0.00 | 0.10 | 0.10 | 92 | 1180.5 |
| 20260505092814 | 7 | 233 | 4.8 | 6.4 | 0.00 | 0.10 | 0.10 | 92 | 1180.9 |
| 20260505092313 | 7 | 169 | 1.6 | 6.4 | 0.00 | 0.10 | 0.10 | 91 | 1181.1 |
| 20260505091810 | 7 | 207 | 6.4 | 12.9 | 0.05 | 0.10 | 0.10 | 91 | 1181.2 |
| 20260505091308 | 7 | 191 | 6.4 | 11.3 | 0.05 | 0.10 | 0.10 | 91 | 1181.0 |
| 20260505090806 | 7 | 210 | 8.0 | 11.3 | 0.00 | 0.10 | 0.10 | 91 | 1181.0 |
| 20260505090304 | 7 | 212 | 9.7 | 9.7 | 0.00 | 0.10 | 0.10 | 91 | 1181.1 |
| 20260505085800 | 7 | 218 | 6.4 | 16.1 | 0.00 | 0.10 | 0.10 | 91 | 1181.2 |
| 20260505085259 | 7 | 252 | 12.9 | 24.1 | 0.00 | 0.10 | 0.10 | 91 | 1180.6 |
| 20260505084755 | 7 | 188 | 8.0 | 20.9 | 0.00 | 0.10 | 0.10 | 91 | 1180.7 |
| 20260505084249 | 7 | 199 | 9.7 | 20.9 | 0.00 | 0.10 | 0.10 | 91 | 1180.9 |
| 20260505083745 | 7 | 238 | 4.8 | 11.3 | 0.00 | 0.10 | 0.10 | 91 | 1180.9 |
| 20260505083242 | 7 | 173 | 8.0 | 9.7 | 0.00 | 0.10 | 0.10 | 91 | 1181.0 |
| 20260505082738 | 7 | 227 | 8.0 | 9.7 | 0.00 | 0.10 | 0.10 | 90 | 1181.2 |
| 20260505082235 | 7 | 198 | 6.4 | 19.3 | 0.00 | 0.10 | 0.10 | 90 | 1181.0 |
| 20260505081731 | 7 | 208 | 4.8 | 9.7 | 0.05 | 0.10 | 0.10 | 90 | 1181.2 |
| 20260505081229 | 7 | 272 | 3.2 | 17.7 | 0.05 | 0.08 | 0.08 | 90 | 1181.2 |
| 20260505080726 | 7 | 234 | 6.4 | 20.9 | 0.23 | 0.08 | 0.08 | 90 | 1181.3 |
| 20260505080221 | 7 | 201 | 6.4 | 12.9 | 0.18 | 0.05 | 0.05 | 90 | 1181.2 |
| 20260505075717 | 7 | 267 | 4.8 | 14.5 | 0.13 | 0.05 | 0.05 | 89 | 1181.5 |
| 20260505075214 | 7 | 224 | 16.1 | 22.5 | 0.05 | 0.03 | 0.03 | 89 | 1181.1 |
| 20260505074712 | 7 | 226 | 9.7 | 20.9 | 0.00 | 0.03 | 0.03 | 89 | 1181.0 |
| 20260505074208 | 7 | 250 | 19.3 | 24.1 | 0.00 | 0.03 | 0.03 | 89 | 1181.0 |
| 20260505073706 | 7 | 235 | 19.3 | 27.4 | 0.00 | 0.03 | 0.03 | 89 | 1181.0 |
| 20260505073204 | 7 | 207 | 19.3 | 24.1 | 0.00 | 0.03 | 0.03 | 89 | 1181.0 |
| 20260505072659 | 7 | 219 | 6.4 | 17.7 | 0.00 | 0.03 | 0.03 | 89 | 1180.9 |
| 20260505072156 | 7 | 214 | 6.4 | 19.3 | 0.00 | 0.03 | 0.03 | 89 | 1180.6 |
| 20260505071652 | 7 | 202 | 6.4 | 16.1 | 0.05 | 0.03 | 0.03 | 89 | 1180.6 |
| 20260505071150 | 7 | 235 | 14.5 | 19.3 | 0.13 | 0.03 | 0.03 | 88 | 1180.9 |
| 20260505070646 | 7 | 204 | 9.7 | 14.5 | 0.23 | 0.00 | 0.00 | 88 | 1180.7 |
| 20260505070143 | 8 | 200 | 8.0 | 16.1 | 0.43 | 0.00 | 0.00 | 87 | 1181.0 |
| 20260505065639 | 8 | 246 | 12.9 | 19.3 | 0.43 | 0.41 | 0.41 | 86 | 1181.4 |
| 20260505065136 | 8 | 236 | 12.9 | 16.1 | 0.36 | 0.36 | 0.36 | 84 | 1181.5 |
| 20260505064632 | 8 | 221 | 11.3 | 20.9 | 0.23 | 0.33 | 0.33 | 84 | 1181.4 |
| 20260505064131 | 8 | 249 | 9.7 | 20.9 | 0.05 | 0.30 | 0.30 | 82 | 1181.2 |
| 20260505063628 | 8 | 257 | 4.8 | 11.3 | 0.05 | 0.28 | 0.28 | 83 | 1181.4 |
| 20260505063124 | 8 | 242 | 8.0 | 20.9 | 0.13 | 0.28 | 0.28 | 82 | 1181.0 |
| 20260505062620 | 8 | 236 | 12.9 | 29.0 | 0.13 | 0.28 | 0.28 | 81 | 1180.2 |
| 20260505062118 | 9 | 216 | 9.7 | 17.7 | 0.05 | 0.28 | 0.28 | 80 | 1180.6 |
| 20260505061615 | 9 | 215 | 14.5 | 17.7 | 0.00 | 0.25 | 0.25 | 78 | 1180.7 |
| 20260505061113 | 9 | 223 | 6.4 | 14.5 | 0.00 | 0.25 | 0.25 | 79 | 1180.9 |
| 20260505060610 | 9 | 218 | 9.7 | 19.3 | 0.00 | 0.25 | 0.25 | 78 | 1180.5 |
| 20260505060107 | 9 | 205 | 4.8 | 9.7 | 0.00 | 0.25 | 0.25 | 79 | 1180.4 |
| 20260505055602 | 9 | 191 | 6.4 | 14.5 | 0.00 | 0.25 | 0.25 | 79 | 1180.5 |
| 20260505055059 | 9 | 228 | 8.0 | 19.3 | 0.00 | 0.25 | 0.25 | 78 | 1180.7 |
| 20260505054556 | 9 | 207 | 8.0 | 19.3 | 0.00 | 0.25 | 0.25 | 77 | 1180.4 |
| 20260505054054 | 10 | 246 | 11.3 | 17.7 | 0.00 | 0.25 | 0.25 | 76 | 1180.5 |
| 20260505053551 | 10 | 233 | 14.5 | 24.1 | 0.00 | 0.25 | 0.25 | 76 | 1180.6 |
| 20260505053048 | 9 | 260 | 12.9 | 27.4 | 0.00 | 0.25 | 0.25 | 77 | 1180.4 |
| 20260505052544 | 9 | 233 | 11.3 | 20.9 | 0.00 | 0.25 | 0.25 | 78 | 1180.5 |
| 20260505052042 | 9 | 241 | 16.1 | 25.7 | 0.00 | 0.25 | 0.25 | 77 | 1180.5 |
| 20260505051539 | 9 | 246 | 9.7 | 17.7 | 0.00 | 0.25 | 0.25 | 78 | 1180.7 |
| 20260505051037 | 9 | 259 | 12.9 | 20.9 | 0.00 | 0.25 | 0.25 | 77 | 1180.7 |
| 20260505050535 | 9 | 235 | 16.1 | 20.9 | 0.00 | 0.25 | 0.25 | 75 | 1180.6 |
| 20260505041502 | 9 | 228 | 9.7 | 17.7 | 0.00 | 0.25 | 0.25 | 76 | 1180.5 |
| 20260505041000 | 9 | 206 | 6.4 | 19.3 | 0.00 | 0.25 | 0.25 | 78 | 1180.6 |
| 20260505040457 | 10 | 224 | 8.0 | 11.3 | 0.00 | 0.25 | 0.25 | 78 | 1180.7 |
| 20260505035954 | 9 | 256 | 11.3 | 14.5 | 0.00 | 0.25 | 0.25 | 77 | 1180.4 |
| 20260505035450 | 9 | 234 | 9.7 | 11.3 | 0.00 | 0.25 | 0.25 | 79 | 1180.5 |
| 20260505034947 | 9 | 241 | 8.0 | 9.7 | 0.00 | 0.25 | 0.25 | 79 | 1180.4 |
| 20260505034444 | 9 | 205 | 6.4 | 12.9 | 0.00 | 0.25 | 0.25 | 79 | 1180.0 |
| 20260505033941 | 9 | 237 | 11.3 | 16.1 | 0.00 | 0.25 | 0.25 | 80 | 1180.0 |
| 20260505033437 | 9 | 217 | 14.5 | 17.7 | 0.00 | 0.25 | 0.25 | 80 | 1179.7 |
| 20260505032936 | 9 | 208 | 11.3 | 14.5 | 0.00 | 0.25 | 0.25 | 79 | 1180.0 |
| 20260505032433 | 9 | 205 | 6.4 | 12.9 | 0.00 | 0.25 | 0.25 | 80 | 1180.2 |
| 20260505031929 | 9 | 213 | 14.5 | 20.9 | 0.00 | 0.25 | 0.25 | 79 | 1180.2 |
| 20260505031426 | 9 | 232 | 14.5 | 19.3 | 0.00 | 0.25 | 0.25 | 78 | 1180.4 |
| 20260505030923 | 9 | 237 | 14.5 | 17.7 | 0.00 | 0.25 | 0.25 | 79 | 1180.5 |
| 20260505030419 | 9 | 237 | 17.7 | 20.9 | 0.00 | 0.25 | 0.25 | 80 | 1180.4 |
| 20260505025914 | 9 | 201 | 14.5 | 24.1 | 0.00 | 0.25 | 0.25 | 81 | 1180.5 |
| 20260505025412 | 9 | 218 | 12.9 | 22.5 | 0.00 | 0.25 | 0.25 | 80 | 1180.3 |
| 20260505024911 | 10 | 226 | 14.5 | 22.5 | 0.00 | 0.25 | 0.25 | 80 | 1180.4 |
| 20260505024408 | 10 | 227 | 17.7 | 22.5 | 0.00 | 0.25 | 0.25 | 82 | 1180.5 |
| 20260505023905 | 10 | 263 | 11.3 | 24.1 | 0.00 | 0.25 | 0.25 | 81 | 1180.4 |
| 20260505023402 | 10 | 242 | 12.9 | 20.9 | 0.00 | 0.25 | 0.25 | 81 | 1180.4 |
| 20260505022859 | 10 | 213 | 8.0 | 22.5 | 0.00 | 0.25 | 0.25 | 82 | 1180.3 |
| 20260505022356 | 10 | 250 | 14.5 | 17.7 | 0.00 | 0.25 | 0.25 | 82 | 1180.2 |
| 20260505021853 | 10 | 234 | 17.7 | 25.7 | 0.00 | 0.25 | 0.25 | 82 | 1180.3 |
| 20260505021349 | 10 | 214 | 25.7 | 27.4 | 0.00 | 0.25 | 0.25 | 81 | 1180.1 |
| 20260505020845 | 10 | 244 | 9.7 | 20.9 | 0.00 | 0.25 | 0.25 | 82 | 1180.1 |
| 20260505020341 | 10 | 250 | 8.0 | 19.3 | 0.00 | 0.25 | 0.25 | 82 | 1180.1 |
| 20260505015838 | 10 | 230 | 12.9 | 27.4 | 0.00 | 0.25 | 0.25 | 83 | 1179.8 |
| 20260505015335 | 10 | 252 | 9.7 | 20.9 | 0.00 | 0.25 | 0.25 | 82 | 1179.7 |
| 20260505014833 | 10 | 230 | 16.1 | 25.7 | 0.00 | 0.25 | 0.25 | 82 | 1179.5 |
| 20260505014329 | 10 | 223 | 9.7 | 24.1 | 0.00 | 0.25 | 0.25 | 81 | 1179.3 |
| 20260505013826 | 10 | 223 | 9.7 | 20.9 | 0.00 | 0.25 | 0.25 | 82 | 1179.3 |
| 20260505013323 | 10 | 216 | 16.1 | 24.1 | 0.00 | 0.25 | 0.25 | 81 | 1179.2 |
| 20260505012822 | 10 | 246 | 12.9 | 24.1 | 0.00 | 0.25 | 0.25 | 81 | 1179.6 |
| 20260505012319 | 10 | 220 | 14.5 | 22.5 | 0.00 | 0.25 | 0.25 | 81 | 1179.5 |
| 20260505011815 | 10 | 227 | 11.3 | 20.9 | 0.13 | 0.25 | 0.25 | 81 | 1180.0 |
| 20260505011312 | 10 | 248 | 14.5 | 17.7 | 0.18 | 0.25 | 0.25 | 81 | 1180.5 |
| 20260505010808 | 10 | 267 | 9.7 | 19.3 | 0.05 | 0.23 | 0.23 | 79 | 1180.3 |
| 20260505010304 | 10 | 260 | 9.7 | 12.9 | 0.05 | 0.23 | 0.23 | 81 | 1180.7 |
| 20260505005800 | 10 | 277 | 6.4 | 16.1 | 0.05 | 0.23 | 0.23 | 80 | 1180.7 |
| 20260505005257 | 10 | 253 | 6.4 | 16.1 | 0.00 | 0.23 | 0.23 | 81 | 1181.0 |